Skip Page Navigation
NASA JPL Caltech
NASA Logo - Jet Propulsion Laboratory + View the NASA Portal
+ Center for Near-Earth Object Studies
JPL Home Earth Solar System Stars & Galaxies Technology
JPL Solar System Dynamics
BODIES ORBITS EPHEMERIDES TOOLS PHYSICAL DATA DISCOVERY FAQ SITE MAP
JPL Small-Body Database Browser
Search: [ help ]  
(2019 BE5)
Classification: Aten [NEO]          SPK-ID: 3838078
Ephemeris | Orbit Diagram | Orbital Elements | Mission Design | Physical Parameters | Close-Approach Data ]

[ show orbit diagram ]
Orbital Elements at Epoch 2459200.5 (2020-Dec-17.0) TDB
Reference: JPL 8 (heliocentric ecliptic J2000)
 Element Value Uncertainty (1-sigma)   Units 
e .6591373923699416 2.2022e-07  
a .6101045613460928 4.3431e-08 au
q .2079618317074221 1.4872e-07 au
i 1.43623345129462 1.2587e-05 deg
node 309.0257337102515 3.2198e-05 deg
peri 9.757962340837919 3.0688e-05 deg
M 128.9835541383728 0.00011249 deg
tp 2459138.135610721503
(2020-Oct-15.63561072)
4.8802e-05 TDB
period 174.062346864574
0.48
1.8586e-05
5.089e-08
d
yr
n 2.068224440752207 2.2084e-07 deg/d
Q 1.012247290984764 7.2058e-08 au
  Orbit Determination Parameters
   # obs. used (total)      82  
   data-arc span      363 days  
   first obs. used      2019-01-31  
   last obs. used      2020-01-29  
   planetary ephem.      DE431  
   SB-pert. ephem.      SB431-N16  
   condition code      2  
   norm. resid. RMS      .45254  
   source      ORB  
   producer      Otto Matic  
   solution date      2020-Feb-01 05:46:11  

Additional Information
 Earth MOID = 1.6069E-5 au 
 Jupiter MOID = 4.30029 au 
 T_jup = 9.043 
[ show covariance matrix ]

Ephemeris | Orbit Diagram | Orbital Elements | Mission Design | Physical Parameters | Close-Approach Data ]

Physical Parameter Table
Parameter Symbol Value Units Sigma Reference Notes
absolute magnitude H 25.1   .48425 MPO467428 autocmod 2.6q
rotation period rot_per 0.0033276 h n/a LCDB (Rev. 2020-October); Warner et al., 2009 Published Reference List:
[Ryan, W. (2019)http://infohost.nmt.edu/~bryan/research/work/mro_images/ztf02 rm/ztf02rm_190202_short.jpg]

[ show close-approach data ]
Ephemeris | Orbit Diagram | Orbital Elements | Mission Design | Physical Parameters | Close-Approach Data ]
ABOUT SSD CREDITS/AWARDS PRIVACY/COPYRIGHT GLOSSARY LINKS
FirstGov 2021-Mar-04 20:05 UT
(server date/time)  
NASA Home Page
Site Manager:   Ryan S. Park
Webmaster  Alan B. Chamberlin